Wind_Speed
29 28 29 30 30 31 32 33 35 35 36 37 37 39 41 41 42 42 43 44 45 46 46 47 46 47 47 48 49 50 52 53 54 53 54 55 56 57 58 60 61 61 60
29 29 29 30 30 30 30 32 34 35 36 37 38 40 41 42 42 43 44 45 46 46 45 45 45 46 47 48 49 50 51 52 53 52 53 54 56 57 59 59 59 59 59
29 30 30 30 30 30 31 32 34 35 37 38 39 40 42 43 44 45 46 46 46 45 45 45 46 46 47 48 48 49 50 51 52 52 53 54 55 57 58 58 57 58 57
29 30 30 31 31 31 32 33 34 35 37 39 40 41 42 43 45 46 46 45 45 45 45 45 46 46 47 48 48 50 51 51 52 53 54 55 55 56 56 56 56 56 56
28 28 29 30 31 32 33 34 36 37 38 40 41 43 43 44 44 45 44 44 43 43 44 45 46 46 47 48 49 51 52 53 54 55 55 55 55 56 55 55 55 54 55
27 28 29 31 31 32 34 35 37 38 40 41 42 43 44 44 44 44 43 42 42 43 44 45 46 47 48 49 50 52 53 53 54 55 55 55 56 56 55 55 55 54 54
28 29 30 31 32 34 35 36 37 38 40 41 42 42 43 43 43 42 42 42 42 43 44 46 47 48 49 50 51 51 52 53 54 55 55 55 55 55 55 55 54 53 53
29 30 31 32 33 35 36 36 37 38 39 40 40 40 41 42 42 42 42 42 43 44 45 47 48 49 50 51 51 51 51 52 53 54 55 55 56 55 54 54 54 52 52
31 32 32 33 34 35 36 36 38 38 39 40 40 40 41 42 42 43 42 43 44 45 46 48 49 50 51 52 52 51 51 51 52 53 54 54 54 54 53 53 52 52 51
32 33 34 34 36 37 38 38 39 39 40 40 40 40 41 42 42 42 43 44 45 46 47 49 49 50 51 51 51 51 51 51 52 52 53 52 52 51 52 52 51 51 50
34 35 35 36 37 38 38 39 39 40 40 40 41 41 42 42 42 43 44 45 46 47 48 49 49 50 50 50 51 51 52 52 52 52 52 51 50 50 50 50 50 50 50
35 36 36 37 38 39 39 40 41 41 41 42 42 43 43 43 43 44 45 46 47 48 48 49 50 50 50 50 51 51 52 52 52 51 51 50 49 48 48 49 49 49 49
35 36 37 38 39 40 40 41 42 42 43 43 43 43 44 44 45 46 47 48 49 49 49 49 50 50 50 51 51 51 52 51 51 50 50 49 48 47 47 48 48 48 48
36 37 38 39 40 41 42 42 43 44 44 44 44 44 45 46 46 47 48 48 49 49 50 50 49 49 50 50 51 50 50 50 50 49 49 48 47 47 47 47 47 47 47
38 39 40 40 41 42 43 44 44 45 46 46 46 47 48 48 48 49 50 50 50 50 50 50 50 50 50 50 50 49 49 48 49 49 49 48 48 47 47 47 47 47 47
39 40 41 43 43 44 45 45 45 46 47 48 48 49 49 49 50 50 50 50 50 50 50 51 51 51 50 50 49 48 48 48 49 49 48 48 48 48 48 48 47 47 47
40 42 43 44 45 46 46 46 47 47 48 48 48 49 50 50 50 50 50 51 51 51 51 51 51 51 51 50 49 48 48 49 50 50 49 48 48 48 47 46 46 46 46
41 43 44 45 46 46 47 48 48 48 48 48 49 50 50 50 50 50 50 50 50 50 50 51 51 50 50 49 49 49 49 50 50 50 49 49 48 48 47 45 44 45 44
42 43 45 46 47 47 48 48 49 49 49 49 50 50 50 50 50 50 50 50 50 50 50 50 50 50 50 50 50 50 50 50 50 50 49 48 48 46 45 44 44 44 43
44 45 46 47 47 48 49 49 50 50 50 50 50 50 50 50 50 50 50 51 50 50 50 51 51 51 50 50 50 50 49 49 49 48 47 47 46 45 44 44 43 42 41
46 47 48 49 49 49 49 50 50 50 50 50 50 50 50 50 50 50 50 51 51 51 51 52 52 51 50 49 48 48 48 48 47 47 45 45 44 44 43 42 41 40 39
47 48 49 50 50 50 50 50 50 50 50 50 50 50 50 50 50 50 51 51 51 52 52 51 51 50 49 48 47 47 47 47 46 45 44 43 43 42 41 40 39 38 37
48 49 50 51 51 50 50 50 51 51 51 50 51 51 50 50 50 51 51 51 51 51 51 50 49 49 49 47 47 46 47 46 46 44 42 41 41 40 39 38 37 35 34
50 51 51 51 51 51 51 51 51 51 51 51 51 51 51 51 51 51 51 51 51 50 50 49 49 49 48 47 46 46 46 45 44 43 41 40 39 38 37 36 34 32 31
51 51 51 51 51 51 51 51 52 52 52 52 52 52 52 52 52 52 51 51 50 49 49 49 49 48 47 46 45 45 44 44 43 42 40 39 38 36 35 33 32 30 30
52 52 52 52 51 51 52 52 52 53 53 53 54 54 53 53 53 52 51 51 50 50 49 49 48 47 46 45 44 43 43 42 41 40 38 37 36 34 33 31 30 30 29
Wind_Direction
288 288 287 288 288 287 287 287 288 291 292 292 293 293 295 296 297 297 297 298 298 298 298 298 298 298 298 298 298 298 299 299 298 297 297 297 296 295 294 294 294 293 293
288 290 290 290 290 290 291 291 290 291 291 291 293 294 295 296 297 297 298 299 299 299 299 299 300 300 300 300 300 300 300 299 300 299 299 299 299 299 297 296 294 293 294
288 290 289 290 290 290 291 292 292 292 292 293 295 296 297 297 298 299 299 300 299 299 299 299 300 301 301 301 301 301 301 301 301 301 302 301 300 300 299 298 297 295 295
289 290 290 290 290 290 291 292 293 293 294 295 295 297 298 299 300 301 301 300 299 299 300 300 300 301 301 302 302 302 302 302 303 303 303 303 303 302 301 300 298 297 297
292 291 291 291 291 292 293 293 293 295 296 296 298 298 299 301 302 302 301 301 301 301 302 302 302 302 303 303 303 304 304 304 304 304 305 304 304 303 302 301 300 299 299
293 293 293 293 294 294 295 296 295 295 296 298 299 299 300 301 302 302 302 302 302 302 303 303 303 303 303 304 305 305 305 306 306 306 306 306 305 305 305 304 303 301 301
293 295 295 296 296 296 297 298 298 298 298 298 299 300 301 301 301 301 303 303 302 303 304 304 304 304 304 305 306 306 307 306 307 307 307 307 308 307 306 306 305 304 304
294 295 296 297 297 298 299 299 300 301 300 300 300 301 301 301 302 302 302 303 304 304 304 304 304 305 306 306 307 307 307 308 308 308 308 309 310 309 308 307 306 305 305
296 297 297 297 298 299 300 300 300 301 301 302 301 301 301 301 301 301 302 303 304 305 305 306 306 306 307 308 308 309 309 309 309 310 311 311 311 310 309 308 308 306 306
297 297 297 298 299 300 301 301 300 301 301 301 301 302 303 302 302 301 302 303 304 305 306 306 307 308 308 309 309 309 310 311 311 312 312 312 312 311 311 310 310 308 308
296 297 297 298 299 301 301 302 302 302 301 302 303 303 303 303 303 303 303 303 304 305 306 306 307 308 309 309 309 310 311 312 313 313 313 312 312 312 312 312 312 311 310
296 296 297 298 299 300 301 302 304 304 303 303 304 304 304 303 302 303 303 305 306 307 307 307 308 308 308 309 310 310 311 312 313 313 313 313 313 313 313 313 313 312 312
297 296 298 298 299 300 302 303 303 303 304 303 304 304 304 303 303 303 304 306 307 307 307 307 308 308 308 309 310 311 311 312 313 313 313 313 313 313 313 313 313 313 313
299 298 298 299 299 300 302 303 303 303 304 304 303 303 303 303 303 304 306 307 307 307 307 308 308 308 308 309 310 310 311 312 313 313 313 313 312 312 312 312 313 313 313
300 301 300 301 300 301 302 302 302 303 303 304 304 303 302 303 303 305 306 306 307 307 307 308 308 308 309 309 310 310 310 311 312 312 312 312 312 312 312 312 312 313 313
300 301 302 301 300 301 301 301 302 302 303 303 304 304 304 304 305 306 307 307 308 308 308 308 308 308 309 309 309 309 310 311 311 312 311 312 312 311 311 311 311 312 313
300 301 302 302 300 300 300 301 301 302 303 304 304 305 305 305 305 306 306 307 307 307 307 307 307 308 308 308 308 308 309 309 310 310 310 311 311 311 311 311 311 312 313
301 302 303 303 302 301 300 301 301 302 302 303 303 303 304 305 305 305 306 307 307 307 307 307 308 308 308 308 308 308 308 309 309 309 309 309 310 310 310 311 311 312 313
302 303 303 304 303 302 301 301 301 302 302 303 303 304 304 305 305 306 306 307 307 307 307 308 308 309 309 309 309 309 308 308 308 308 308 308 309 309 310 310 311 312 312
302 303 303 304 304 304 303 302 302 302 303 303 304 303 303 304 305 306 306 306 306 307 307 308 309 309 309 309 309 309 309 308 308 308 308 308 309 309 310 310 311 312 312
302 303 304 303 303 303 303 303 303 303 303 303 303 303 303 304 304 305 306 306 306 307 307 308 309 309 309 309 309 309 309 309 309 309 308 308 309 310 311 311 311 311 312
302 303 304 304 303 303 303 303 303 303 303 303 303 304 304 304 305 305 306 306 307 307 308 308 308 309 309 309 309 309 309 309 309 309 309 309 310 310 311 311 310 310 312
303 303 304 303 303 303 303 303 303 303 303 303 303 304 304 304 305 306 306 307 308 308 308 308 308 309 309 309 309 309 308 309 309 309 309 309 310 310 311 310 310 310 311
303 303 303 303 303 303 303 303 304 303 303 303 303 303 303 304 305 305 306 306 307 307 307 308 309 309 309 309 308 309 309 309 310 310 310 309 310 310 310 309 308 308 309
303 303 302 302 303 303 303 303 304 304 304 303 304 304 304 304 304 305 305 305 306 306 306 307 308 309 309 309 309 309 310 310 311 310 310 310 310 309 309 308 307 306 308
303 303 303 303 302 303 303 304 304 304 304 303 303 303 303 303 303 304 304 305 305 305 306 306 307 308 308 308 308 309 310 310 310 311 310 309 309 309 309 308 307 307 307
Height
5686 5684 5682 5680 5678 5676 5673 5671 5669 5666 5663 5660 5656 5652 5649 5645 5641 5636 5632 5627 5622 5617 5612 5607 5602 5597 5592 5587 5582 5576 5570 5564 5560 5557 5550 5543 5536 5530 5524 5517 5511 5504 5498
5678 5676 5674 5672 5670 5667 5665 5662 5660 5657 5654 5650 5647 5643 5639 5635 5631 5626 5621 5616 5611 5606 5600 5595 5591 5586 5581 5575 5570 5564 5558 5552 5546 5541 5536 5529 5522 5515 5508 5501 5494 5487 5481
5670 5668 5666 5664 5661 5659 5656 5653 5651 5648 5645 5641 5638 5634 5629 5625 5620 5615 5610 5605 5599 5594 5589 5584 5579 5574 5569 5563 5558 5552 5546 5539 5532 5526 5521 5514 5507 5499 5492 5485 5478 5471 5464
5663 5660 5658 5655 5653 5650 5647 5645 5642 5638 5635 5632 5628 5623 5619 5614 5609 5604 5599 5593 5588 5583 5578 5573 5568 5562 5557 5552 5546 5539 5533 5526 5519 5512 5506 5499 5492 5484 5476 5469 5463 5456 5449
5655 5653 5650 5647 5644 5642 5639 5636 5633 5629 5626 5622 5618 5613 5608 5603 5598 5593 5588 5583 5578 5573 5567 5562 5557 5551 5545 5539 5533 5526 5519 5512 5505 5498 5491 5484 5477 5469 5462 5454 5447 5440 5433
5648 5645 5642 5640 5637 5634 5630 5627 5623 5620 5616 5612 5607 5603 5598 5592 5587 5582 5577 5572 5567 5562 5557 5551 5545 5540 5533 5527 5520 5513 5506 5498 5491 5484 5477 5469 5462 5454 5446 5438 5431 5425 5419
5641 5638 5635 5632 5629 5625 5622 5618 5614 5610 5606 5601 5597 5592 5587 5582 5577 5572 5567 5562 5557 5551 5546 5540 5534 5528 5521 5515 5508 5501 5493 5485 5477 5469 5462 5454 5447 5440 5432 5425 5416 5409 5402
5634 5631 5628 5624 5620 5617 5613 5609 5605 5601 5596 5591 5586 5582 5577 5572 5566 5561 5556 5551 5546 5540 5534 5528 5522 5515 5508 5501 5495 5488 5480 5472 5464 5456 5448 5440 5432 5424 5416 5409 5401 5394 5388
5626 5623 5619 5616 5612 5608 5604 5600 5596 5591 5586 5581 5576 5572 5567 5561 5556 5551 5545 5540 5535 5529 5523 5516 5509 5502 5495 5488 5482 5475 5468 5460 5451 5443 5435 5426 5418 5410 5402 5394 5387 5379 5374
5618 5615 5611 5607 5603 5599 5595 5590 5586 5581 5576 5571 5566 5561 5556 5551 5545 5540 5534 5529 5524 5518 5511 5504 5496 5489 5482 5474 5468 5461 5454 5447 5439 5431 5422 5414 5406 5397 5389 5381 5373 5365 5358
5609 5606 5602 5598 5594 5590 5585 5580 5576 5571 5566 5561 5556 5550 5545 5539 5534 5528 5522 5517 5511 5505 5498 5492 5484 5477 5469 5462 5455 5448 5441 5433 5426 5418 5410 5402 5394 5386 5378 5369 5361 5353 5346
5600 5596 5593 5588 5584 5580 5575 5570 5565 5560 5555 5550 5545 5539 5534 5528 5522 5517 5511 5504 5498 5492 5485 5479 5472 5464 5457 5450 5443 5436 5428 5420 5412 5405 5397 5390 5382 5374 5366 5358 5350 5342 5334
5591 5587 5583 5579 5574 5569 5565 5560 5555 5550 5544 5539 5534 5528 5522 5516 5511 5505 5499 5492 5485 5479 5472 5466 5459 5452 5445 5438 5430 5423 5415 5407 5399 5392 5385 5377 5370 5362 5355 5347 5339 5331 5323
5581 5577 5573 5569 5564 5559 5554 5549 5544 5539 5533 5528 5522 5516 5510 5504 5499 5493 5486 5480 5473 5466 5460 5453 5446 5439 5432 5425 5418 5410 5402 5395 5387 5380 5373 5365 5358 5350 5343 5336 5328 5321 5313
5571 5567 5562 5558 5553 5548 5543 5538 5532 5527 5521 5516 5510 5504 5498 5492 5486 5479 5473 5466 5460 5453 5446 5440 5433 5427 5420 5413 5405 5398 5391 5383 5376 5368 5361 5353 5346 5339 5331 5324 5317 5309 5302
5561 5556 5551 5546 5541 5536 5531 5526 5520 5515 5509 5503 5497 5491 5485 5479 5472 5466 5459 5452 5446 5439 5432 5426 5420 5413 5406 5399 5392 5385 5378 5371 5364 5356 5349 5341 5334 5327 5320 5312 5305 5297 5290
5550 5545 5540 5535 5530 5525 5520 5515 5509 5503 5497 5491 5484 5478 5472 5465 5459 5452 5446 5440 5433 5426 5420 5413 5406 5400 5393 5386 5379 5372 5366 5359 5351 5344 5336 5329 5322 5314 5307 5300 5293 5286 5279
5539 5534 5529 5523 5518 5513 5507 5502 5496 5491 5485 5479 5472 5465 5459 5452 5446 5439 5433 5427 5420 5413 5407 5400 5393 5386 5379 5372 5366 5359 5352 5345 5338 5331 5323 5316 5309 5302 5295 5288 5281 5274 5267
5527 5522 5517 5512 5506 5500 5495 5489 5483 5477 5471 5465 5459 5452 5446 5439 5433 5426 5420 5413 5407 5401 5394 5387 5380 5373 5366 5359 5352 5345 5338 5331 5324 5317 5310 5303 5296 5289 5282 5276 5269 5262 5256
5516 5510 5505 5499 5494 5488 5481 5475 5469 5463 5457 5451 5445 5439 5433 5426 5420 5414 5407 5400 5394 5387 5381 5374 5367 5360 5352 5345 5338 5331 5324 5317 5310 5303 5296 5290 5283 5277 5270 5264 5257 5251 5245
5503 5498 5492 5487 5481 5474 5468 5462 5456 5450 5444 5438 5432 5425 5419 5413 5407 5400 5394 5387 5380 5374 5367 5360 5353 5346 5339 5332 5325 5318 5311 5304 5297 5290 5283 5277 5271 5265 5259 5252 5246 5240 5235
5491 5485 5479 5473 5467 5461 5455 5449 5443 5437 5430 5424 5418 5412 5405 5399 5393 5387 5380 5373 5367 5360 5353 5346 5339 5332 5325 5319 5312 5305 5298 5292 5285 5278 5272 5266 5260 5254 5247 5242 5236 5230 5225
5477 5471 5465 5459 5453 5447 5441 5435 5429 5423 5417 5410 5404 5398 5392 5385 5379 5373 5366 5360 5353 5346 5339 5332 5326 5319 5313 5306 5299 5292 5286 5279 5273 5266 5260 5254 5249 5243 5237 5231 5226 5221 5216
5463 5457 5451 5445 5439 5433 5427 5421 5415 5409 5403 5396 5390 5384 5378 5371 5365 5359 5352 5346 5339 5333 5326 5319 5313 5307 5300 5293 5287 5280 5274 5267 5261 5255 5249 5243 5238 5232 5227 5222 5217 5213 5208
5449 5443 5437 5431 5425 5419 5413 5407 5401 5395 5388 5382 5376 5369 5363 5357 5351 5344 5338 5332 5326 5319 5313 5306 5300 5294 5287 5281 5275 5268 5262 5256 5250 5244 5238 5233 5228 5223 5218 5213 5209 5205 5201
5435 5429 5423 5417 5411 5405 5399 5393 5386 5380 5373 5367 5361 5354 5348 5342 5336 5330 5324 5318 5312 5306 5299 5293 5287 5281 5275 5269 5263 5257 5251 5245 5239 5234 5228 5223 5219 5214 5209 5205 5201 5197 5193